Location: Hylvaty SDH
(49.9612°N, 16.4057°E)
Time: 03:52:41
(UTC+01:00)

Tiros 1 despin weight - Pass Details

Date: 16 January 2021
Orbit: 593 x 642 km, 48.2° (Epoch: 24 February)

Event Time Altitude Azimuth Distance (km) Brightness Sun altitude
Rises 19:08:39 0° 255° (WSW) 2,844 ? -26.0°
Reaches altitude 10° 19:10:57 10° 252° (WSW) 1,936 ? -26.4°
Enters shadow 19:14:22 49° 228° (SW) 771 ? -26.9°
